map of CAW home
CAW - Airport
Location
City:  Campos dos Goitacazes, Rio de Janeiro, Brazil
Name:Bartolomeu Lysandro
ICAO:SBCP
IATA:CAW

Details
Type:Airport (Aerodrome, Airfield)
Use:Public/Civil
Latitude:2141'54"S (-21.698332)
Longitude:4118'06"W (-41.301668)
Datum:WGS 1984
Elevation:57 ft (17 m)
Variation:23.39W (WMM2015 magnetic declination)
-0.08 annual change
Runways:1
Longest:5066 × 148 ft (1544 × 45 m), paved

Time
Time Zone:UTC-3 (DST-2)
Local Time:

Weather
METAR:SBCP 080900Z 00000KT 9999 FEW007 SCT015 25/25 Q1011
TAF:SBCP 080715Z 0812/0824 04010KT 9999 FEW025 TX32/0817Z TN25/0824Z
BECMG 0813/0815 10015KT SCT025
BECMG 0819/0821 07015KT FEW025
BECMG 0822/0824 04015KT CAVOK
RMK PGS

Related Locations
Nearby:
Farthest:IWO: 12166 mi / 19579 km
Iwo Jima [Iwo Jima AB], Iwo Jima Island, 13, JP

Find:

   beyond  
but within

Other Information
Maps:
NOTAMs:
Links:
Sources:

  
flag of Brazil
flag of Rio de Janeiro
  

Sectional Chart

Flight Planning
at skyvector.com

Satellite Image

Google Maps Satellite view

 

Copyright © 2004-2016 Karl L. Swartz. All rights reserved.
The Great Circle Mapper name and logo are trademarks of the Great Circle Mapper.
All other trademarks mentioned herein belong to their respective owners.
Please see credits for attibutions and further copyright information.

  Follow gcmap on Facebook Follow gcmap on Twitter Follow gcmap on Google+ GCmap on LinkedIn

hCard Microformat

Geo Microformat